This is the latest recevied weather packets stored in our database for station/object K0QED. If no packets are shown the sender has not sent any weather packets the latest 10 day(s).
| Time | Temp. | Humidity | Pressure | Rain* | Wind** | Luminosity | Snow |
|---|---|---|---|---|---|---|---|
| 1787940219 | 30.56° C | 28% | 1029.4 hPa | 0 mm | - | 661 W/m² | - |
| 1787939914 | 30.56° C | 29% | 1029.6 hPa | 0 mm | - | 664 W/m² | - |
| 1787939613 | 30° C | 29% | 1029.7 hPa | 0 mm | - | 661 W/m² | - |
| 1787939308 | 30° C | 28% | 1029.7 hPa | 0 mm | - | 642 W/m² | - |
| 1787939003 | 29.44° C | 30% | 1029.5 hPa | 0 mm | - | 674 W/m² | - |
| 1787938702 | 29.44° C | 33% | 1029.9 hPa | 0 mm | - | 699 W/m² | - |
| 1787938399 | 28.89° C | 32% | 1030 hPa | 0 mm | - | 696 W/m² | - |
| 1787938094 | 28.89° C | 31% | 1029.6 hPa | 0 mm | - | 698 W/m² | - |
| 1787937789 | 28.89° C | 33% | 1029.9 hPa | 0 mm | - | 699 W/m² | - |
| 1787937485 | 28.89° C | 34% | 1030 hPa | 0 mm | - | 688 W/m² | - |
| 1787937181 | 28.89° C | 35% | 1029.9 hPa | 0 mm | - | 681 W/m² | - |
| 1787936881 | 28.33° C | 34% | 1030 hPa | 0 mm | - | 714 W/m² | - |
| 1787936581 | 28.33° C | 33% | 1029.9 hPa | 0 mm | - | 720 W/m² | - |
| 1787936280 | 27.78° C | 35% | 1029.9 hPa | 0 mm | - | 730 W/m² | - |
| 1787935976 | 27.78° C | 36% | 1030 hPa | 0 mm | - | 764 W/m² | - |
| 1787935676 | 27.78° C | 36% | 1030.1 hPa | 0 mm | - | 754 W/m² | - |
| 1787935373 | 27.78° C | 36% | 1030.2 hPa | 0 mm | - | 760 W/m² | - |
| 1787935069 | 27.22° C | 37% | 1030.1 hPa | 0 mm | - | 708 W/m² | - |
| 1787934764 | 26.67° C | 38% | 1030 hPa | 0 mm | - | 691 W/m² | - |
| 1787934462 | 27.78° C | 36% | 1030.1 hPa | 0 mm | - | 702 W/m² | - |
| 1787934157 | 27.22° C | 38% | 1030.1 hPa | 0 mm | - | 691 W/m² | - |
| 1787933856 | 26.11° C | 37% | 1030.1 hPa | 0 mm | - | 694 W/m² | - |
| 1787933551 | 26.11° C | 37% | 1029.6 hPa | 0 mm | - | 675 W/m² | - |
| 1787933246 | 26.11° C | 38% | 1029.7 hPa | 0 mm | - | 105 W/m² | - |
| 1787932947 | 25° C | 39% | 1029.9 hPa | 0 mm | - | 39 W/m² | - |
* Rain latest hour (hover to see other rain measurements)
** Current wind speed in m/s (hover to see current wind gust speed)